Regional Weather Roundup
Issued by NWS

Home | Current Version | Previous Version | Text Only | Print | Product List | Glossary Off
Versions: 1 2 3 4 5 6 7 8 9 10 11 12 13 14 15 16 17 18 19 20 21 22 23 24 25 26 27 28 29 30 31 32 33 34 35 36 37 38 39 40 41 42 43 44 45 46 47 48 49 50

000
ASUS43 KBIS 290910
RWRND

NORTH DAKOTA REGIONAL WEATHER ROUNDUP
NATIONAL WEATHER SERVICE BISMARCK ND
400 AM CDT FRI JUL 29 2016

NOTE: "FAIR" INDICATES FEW OR NO CLOUDS BELOW 12,000 FEET WITH NO
SIGNIFICANT WEATHER AND/OR OBSTRUCTIONS TO VISIBILITY.


NDZ001>003-009>011-017-291000-
NORTHWEST NORTH DAKOTA

CITY           SKY/WX    TMP DP  RH WIND       PRES   REMARKS
WILLISTON      CLEAR     53  51  93 CALM      30.11F
MINOT          MOCLDY    60  54  80 SW7       30.11F
MINOT AFB      CLEAR     51  49  91 SW6       30.10F
$$

NDZ018>021-031>035-040>046-291000-
SOUTHWEST NORTH DAKOTA

CITY           SKY/WX    TMP DP  RH WIND       PRES   REMARKS
BISMARCK       CLOUDY    63  60  90 NE6       30.11F
DICKINSON      PTCLDY    55  55 100 S3        30.12S FOG
GARRISON         N/A     56  55  97 N6        30.12F
HETTINGER ARPT CLOUDY    54  53  97 CALM      30.15F
$$

NDZ004>008-012>016-024-026-027-054-291000-
NORTHEAST NORTH DAKOTA

CITY           SKY/WX    TMP DP  RH WIND       PRES   REMARKS
GRAND FORKS    CLEAR     53  50  89 W6        30.09S
GRND FRKS AFB  CLEAR     53  52  97 NW3       30.10S
DEVILS LAKE    CLEAR     58  56  93 SE3       30.13F
$$

NDZ022-023-025-028>030-036>039-047>053-291000-
SOUTHEAST NORTH DAKOTA

CITY           SKY/WX    TMP DP  RH WIND       PRES   REMARKS
FARGO          MOCLDY    62  56  80 N5        30.08F
JAMESTOWN      MOCLDY    61  59  93 NE3       30.11S
$$





USA.gov is the U.S. government's official web portal to all federal, state and local government web resources and services.